contact:dominique.lefevre@mio.osupytheas.fr, maurice.libes@osupytheas.fr, didier.mallarino@osupytheas.fr
Project:EMSO http://www.emso-fr.org/EMSO-France
Depth: 2436.0 m
Title:EMSO Ligure Ouest : Data MII capteur AQUADOPP
Date,Latitude,Longitude,X_East,Y_North,Z_Up,Amplitude_X,Amplitude_Y,Amplitude_Z,Batterie,SoundSpeed,Heading,Pitch,Roll,Pressure,TIS,Speed,Direction
, degrees North, degrees East, m.s-1, m.s-1,m.s-1, 1, 1, 1, Volt, m.s-1, degree, degree, degree, dbar, degree_C, m.s-1, degree
2021-10-10T00:01:03,42.805,6.029,-0.035,0.042,-0.02,103.0,103.0,102.0,13.4,1505.2,332.0,-0.8,1.8,2470.635,13.28,0.054,320.2
2021-10-10T00:04:03,42.805,6.029,-0.049,0.015,-0.013,102.0,102.0,101.0,13.3,1505.2,327.9,-0.7,1.8,2470.653,13.28,0.051,287.0
2021-10-10T00:07:03,42.805,6.029,-0.035,0.024,-0.025,102.0,103.0,101.0,13.3,1505.2,327.0,-0.8,1.8,2470.651,13.28,0.042,304.4
2021-10-10T00:10:03,42.805,6.029,-0.039,0.002,-0.004,103.0,102.0,101.0,13.4,1505.2,326.3,-0.7,1.8,2470.637,13.28,0.039,272.9
2021-10-10T00:13:03,42.805,6.029,-0.028,0.024,-0.021,103.0,103.0,102.0,13.3,1505.2,326.1,-0.7,1.8,2470.623,13.28,0.036,310.6
2021-10-10T00:16:03,42.805,6.029,-0.035,0.03,0.006,103.0,103.0,101.0,13.4,1505.2,328.1,-0.7,1.8,2470.599,13.28,0.046,310.6
2021-10-10T00:19:03,42.805,6.029,-0.032,0.043,0.014,105.0,103.0,102.0,13.4,1505.2,329.1,-0.8,1.8,2470.601,13.28,0.053,323.3
2021-10-10T00:22:03,42.805,6.029,-0.035,0.007,-0.016,103.0,103.0,101.0,13.4,1505.2,327.7,-0.7,1.8,2470.607,13.28,0.035,281.3
2021-10-10T00:25:03,42.805,6.029,-0.055,0.011,-0.018,103.0,103.0,102.0,13.4,1505.2,328.6,-0.8,1.8,2470.619,13.28,0.056,281.3
2021-10-10T00:28:03,42.805,6.029,-0.017,0.017,-0.005,103.0,104.0,101.0,13.4,1505.2,326.5,-0.7,1.8,2470.608,13.28,0.024,315.0
2021-10-10T00:31:03,42.805,6.029,-0.058,0.012,-0.011,102.0,102.0,103.0,13.4,1505.2,326.5,-0.8,1.8,2470.596,13.29,0.059,281.7
2021-10-10T00:34:03,42.805,6.029,-0.033,0.019,0.033,103.0,104.0,102.0,13.4,1505.2,329.0,-0.7,1.8,2470.621,13.28,0.038,299.9
2021-10-10T00:37:03,42.805,6.029,-0.062,0.026,0.019,103.0,103.0,102.0,13.3,1505.2,328.6,-0.8,1.8,2470.648,13.28,0.067,292.7
2021-10-10T00:40:03,42.805,6.029,-0.047,0.022,-0.026,103.0,103.0,101.0,13.4,1505.2,330.9,-0.7,1.8,2470.618,13.28,0.051,295.1
2021-10-10T00:43:03,42.805,6.029,-0.051,0.015,-0.009,103.0,103.0,101.0,13.4,1505.2,330.1,-0.7,1.8,2470.619,13.28,0.053,286.4
2021-10-10T00:46:03,42.805,6.029,-0.041,0.016,-0.013,103.0,102.0,101.0,13.3,1505.2,328.4,-0.7,1.9,2470.608,13.28,0.044,291.3
2021-10-10T00:49:03,42.805,6.029,-0.023,0.01,-0.005,103.0,103.0,102.0,13.3,1505.2,330.1,-0.7,1.8,2470.626,13.29,0.025,293.5
2021-10-10T00:52:03,42.805,6.029,-0.016,0.042,0.025,104.0,103.0,101.0,13.4,1505.2,329.9,-0.8,1.8,2470.578,13.29,0.044,339.1
2021-10-10T00:55:03,42.805,6.029,-0.021,0.01,0.009,102.0,103.0,101.0,13.4,1505.2,330.0,-0.8,1.8,2470.588,13.29,0.023,295.5
2021-10-10T00:58:03,42.805,6.029,-0.036,0.013,0.041,104.0,103.0,101.0,13.3,1505.2,328.6,-0.7,1.8,2470.606,13.29,0.038,289.9
2021-10-10T01:04:03,42.805,6.029,-0.046,0.024,-0.016,106.0,105.0,103.0,13.4,1505.2,331.7,-0.8,1.8,2470.622,13.28,0.051,297.6
2021-10-10T01:07:02,42.805,6.029,-0.044,0.034,0.015,106.0,104.0,101.0,13.4,1505.2,327.5,-0.8,1.9,2470.604,13.28,0.055,307.7
2021-10-10T01:10:03,42.805,6.029,-0.029,0.01,0.002,103.0,103.0,102.0,13.3,1505.2,329.1,-0.8,1.8,2470.615,13.28,0.03,289.0
2021-10-10T01:13:03,42.805,6.029,-0.035,0.007,0.016,104.0,103.0,101.0,13.4,1505.2,330.6,-0.8,1.8,2470.573,13.28,0.035,281.3
2021-10-10T01:16:03,42.805,6.029,-0.038,0.018,-0.009,104.0,101.0,101.0,13.4,1505.2,326.7,-0.7,1.8,2470.588,13.28,0.042,295.3
2021-10-10T01:19:03,42.805,6.029,-0.034,0.012,-0.004,102.0,104.0,101.0,13.4,1505.2,327.5,-0.8,1.9,2470.594,13.29,0.036,289.4
2021-10-10T01:22:03,42.805,6.029,-0.031,0.021,-0.016,105.0,104.0,100.0,13.4,1505.2,327.4,-0.8,1.8,2470.615,13.29,0.037,304.1
2021-10-10T01:25:03,42.805,6.029,-0.044,0.028,0.024,103.0,103.0,102.0,13.4,1505.2,328.5,-0.7,1.8,2470.58,13.29,0.052,302.5
2021-10-10T01:28:03,42.805,6.029,-0.045,0.016,-0.009,103.0,103.0,100.0,13.3,1505.2,330.4,-0.7,1.8,2470.57,13.29,0.047,289.6
2021-10-10T01:31:03,42.805,6.029,-0.013,0.031,-0.01,103.0,102.0,101.0,13.3,1505.2,326.2,-0.7,1.9,2470.551,13.29,0.033,337.3
2021-10-10T01:34:03,42.805,6.029,-0.033,0.06,0.016,103.0,103.0,101.0,13.3,1505.2,327.8,-0.7,1.8,2470.606,13.29,0.068,331.2
2021-10-10T01:37:03,42.805,6.029,-0.043,0.025,0.001,103.0,103.0,101.0,13.4,1505.2,330.2,-0.8,1.8,2470.595,13.29,0.049,300.2
2021-10-10T01:40:03,42.805,6.029,-0.05,0.028,-0.011,103.0,104.0,102.0,13.4,1505.2,327.6,-0.8,1.8,2470.569,13.29,0.057,299.3
2021-10-10T01:43:03,42.805,6.029,-0.01,0.026,0.0,103.0,103.0,101.0,13.4,1505.2,328.4,-0.7,1.8,2470.584,13.29,0.027,339.0
2021-10-10T01:46:03,42.805,6.029,-0.008,0.02,0.014,103.0,104.0,102.0,13.4,1505.2,327.5,-0.7,1.8,2470.565,13.29,0.021,338.2
2021-10-10T01:49:03,42.805,6.029,-0.018,0.025,0.024,103.0,103.0,102.0,13.4,1505.2,327.7,-0.8,1.8,2470.535,13.29,0.03,324.2
2021-10-10T01:52:03,42.805,6.029,-0.024,0.025,-0.009,103.0,103.0,102.0,13.3,1505.2,327.4,-0.8,1.8,2470.582,13.29,0.034,316.2
2021-10-10T01:55:03,42.805,6.029,-0.009,0.009,-0.001,104.0,103.0,101.0,13.4,1505.2,327.0,-0.8,1.8,2470.557,13.29,0.012,315.0
2021-10-10T01:58:03,42.805,6.029,-0.019,0.024,-0.002,103.0,105.0,101.0,13.4,1505.2,329.8,-0.8,1.8,2470.595,13.29,0.03,321.6
2021-10-10T02:04:03,42.805,6.029,-0.014,0.023,0.009,103.0,103.0,101.0,13.4,1505.2,329.0,-0.8,1.8,2470.562,13.28,0.026,328.7
2021-10-10T02:07:03,42.805,6.029,-0.008,0.043,-0.007,102.0,103.0,102.0,13.4,1505.2,328.3,-0.8,1.8,2470.579,13.28,0.043,349.5
2021-10-10T02:10:03,42.805,6.029,-0.024,0.026,-0.019,103.0,103.0,101.0,13.4,1505.2,328.9,-0.8,1.8,2470.586,13.28,0.035,317.3
2021-10-10T02:13:03,42.805,6.029,-0.022,0.021,0.004,102.0,103.0,103.0,13.3,1505.2,328.6,-0.8,1.8,2470.576,13.28,0.03,313.7
2021-10-10T02:16:03,42.805,6.029,-0.018,0.006,0.008,104.0,104.0,101.0,13.4,1505.2,326.3,-0.7,1.8,2470.557,13.28,0.018,288.4
2021-10-10T02:19:03,42.805,6.029,-0.038,0.006,-0.007,103.0,102.0,101.0,13.3,1505.2,329.6,-0.7,1.8,2470.567,13.28,0.038,279.0
2021-10-10T02:22:03,42.805,6.029,-0.036,0.018,-0.008,104.0,104.0,101.0,13.4,1505.2,329.1,-0.8,1.9,2470.582,13.29,0.04,296.6
2021-10-10T02:25:03,42.805,6.029,-0.023,0.032,0.027,104.0,103.0,102.0,13.4,1505.2,327.2,-0.7,1.8,2470.542,13.29,0.039,324.3
2021-10-10T02:28:03,42.805,6.029,-0.011,0.015,0.016,104.0,103.0,101.0,13.3,1505.2,327.9,-0.7,1.8,2470.55,13.29,0.018,323.7
2021-10-10T02:31:03,42.805,6.029,-0.026,0.02,0.009,102.0,103.0,101.0,13.4,1505.2,327.5,-0.7,1.9,2470.562,13.29,0.032,307.6
2021-10-10T02:34:03,42.805,6.029,-0.021,0.007,-0.02,103.0,103.0,101.0,13.3,1505.2,327.7,-0.8,1.8,2470.527,13.29,0.022,288.4
2021-10-10T02:37:03,42.805,6.029,-0.022,0.008,0.0,104.0,104.0,100.0,13.4,1505.2,326.7,-0.8,1.8,2470.552,13.29,0.023,290.0
2021-10-10T02:40:03,42.805,6.029,-0.018,0.008,-0.035,104.0,103.0,100.0,13.4,1505.2,325.9,-0.7,1.8,2470.484,13.29,0.019,294.0
2021-10-10T02:43:03,42.805,6.029,-0.029,0.034,0.017,102.0,104.0,101.0,13.4,1505.2,330.1,-0.8,1.8,2470.538,13.29,0.044,319.5
2021-10-10T02:46:03,42.805,6.029,-0.023,0.012,0.0,102.0,104.0,100.0,13.4,1505.2,330.4,-0.8,1.8,2470.501,13.29,0.025,297.6
2021-10-10T02:49:03,42.805,6.029,-0.015,0.007,-0.018,103.0,103.0,101.0,13.4,1505.2,331.4,-0.7,1.8,2470.479,13.29,0.016,295.0
2021-10-10T02:52:03,42.805,6.029,-0.028,0.014,0.014,102.0,103.0,101.0,13.3,1505.2,328.9,-0.7,1.8,2470.554,13.29,0.031,296.6
2021-10-10T02:55:03,42.805,6.029,-0.028,0.027,0.025,103.0,104.0,100.0,13.4,1505.2,331.8,-0.7,1.8,2470.533,13.29,0.038,314.0
2021-10-10T02:58:03,42.805,6.029,-0.02,0.021,-0.002,103.0,103.0,101.0,13.3,1505.2,330.6,-0.8,1.8,2470.532,13.29,0.028,316.4
2021-10-10T03:04:03,42.805,6.029,-0.017,0.006,-0.006,104.0,102.0,100.0,13.4,1505.2,330.3,-0.7,1.8,2470.566,13.28,0.018,289.4
2021-10-10T03:07:03,42.805,6.029,-0.036,0.023,-0.017,103.0,102.0,101.0,13.4,1505.2,329.2,-0.7,1.8,2470.549,13.28,0.042,302.6
2021-10-10T03:10:03,42.805,6.029,-0.002,0.018,-0.01,101.0,103.0,101.0,13.4,1505.2,330.2,-0.8,1.8,2470.552,13.28,0.018,353.7
2021-10-10T03:13:03,42.805,6.029,-0.022,0.016,0.016,105.0,102.0,101.0,13.4,1505.2,325.9,-0.8,1.8,2470.562,13.28,0.027,306.0
2021-10-10T03:16:03,42.805,6.029,-0.017,0.024,0.016,104.0,103.0,102.0,13.3,1505.2,327.6,-0.8,1.9,2470.511,13.29,0.029,324.7
2021-10-10T03:19:03,42.805,6.029,-0.024,0.021,-0.009,101.0,103.0,102.0,13.4,1505.2,326.4,-0.7,1.8,2470.502,13.29,0.031,311.2
2021-10-10T03:22:03,42.805,6.029,0.001,0.007,-0.013,104.0,103.0,101.0,13.3,1505.2,327.8,-0.8,1.8,2470.549,13.29,0.007,8.1
2021-10-10T03:25:03,42.805,6.029,-0.028,0.008,0.008,102.0,103.0,101.0,13.3,1505.2,329.5,-0.7,1.8,2470.525,13.29,0.029,285.9
2021-10-10T03:28:03,42.805,6.029,-0.005,0.018,0.0,103.0,104.0,102.0,13.4,1505.2,329.4,-0.8,1.8,2470.518,13.29,0.018,344.5
2021-10-10T03:31:03,42.805,6.029,-0.022,0.018,0.014,109.0,103.0,101.0,13.3,1505.2,329.3,-0.8,1.8,2470.517,13.29,0.028,309.3
2021-10-10T03:34:03,42.805,6.029,-0.028,0.005,0.003,104.0,103.0,101.0,13.4,1505.2,330.9,-0.7,1.8,2470.529,13.29,0.028,280.1
2021-10-10T03:37:03,42.805,6.029,-0.011,0.015,0.008,104.0,103.0,102.0,13.3,1505.2,329.8,-0.8,1.8,2470.503,13.29,0.018,323.7
2021-10-10T03:40:03,42.805,6.029,-0.01,-0.006,-0.01,104.0,103.0,101.0,13.4,1505.2,328.1,-0.8,1.8,2470.51,13.29,0.011,239.0
2021-10-10T03:43:03,42.805,6.029,-0.033,0.024,0.024,104.0,103.0,101.0,13.3,1505.2,328.1,-0.7,1.8,2470.515,13.29,0.04,306.0
2021-10-10T03:46:03,42.805,6.029,-0.006,0.004,-0.033,104.0,103.0,102.0,13.3,1505.2,329.7,-0.8,1.9,2470.51,13.29,0.007,303.7
2021-10-10T03:49:03,42.805,6.029,-0.034,0.023,0.003,104.0,104.0,101.0,13.4,1505.2,330.4,-0.8,1.8,2470.523,13.29,0.041,304.1
2021-10-10T03:52:03,42.805,6.029,-0.003,0.011,0.0,103.0,102.0,101.0,13.3,1505.2,325.6,-0.8,1.8,2470.501,13.29,0.011,344.7
2021-10-10T03:55:03,42.805,6.029,-0.011,0.013,-0.03,103.0,103.0,102.0,13.4,1505.2,330.6,-0.7,1.8,2470.586,13.29,0.017,319.8
2021-10-10T03:58:03,42.805,6.029,0.0,0.007,-0.02,103.0,104.0,101.0,13.3,1505.2,327.0,-0.8,1.8,2470.546,13.29,0.007,0.0
2021-10-10T04:04:03,42.805,6.029,-0.016,0.016,0.0,103.0,103.0,102.0,13.3,1505.2,327.4,-0.7,1.8,2470.537,13.28,0.022,315.0
2021-10-10T04:07:03,42.805,6.029,-0.025,0.003,-0.02,103.0,103.0,102.0,13.3,1505.2,328.5,-0.8,1.8,2470.558,13.28,0.025,276.8
2021-10-10T04:10:03,42.805,6.029,-0.016,0.024,-0.011,104.0,103.0,101.0,13.4,1505.2,326.8,-0.7,1.8,2470.514,13.29,0.028,326.3
2021-10-10T04:13:03,42.805,6.029,0.0,-0.002,0.023,103.0,103.0,101.0,13.3,1505.2,327.5,-0.7,1.8,2470.511,13.29,0.002,180.0
2021-10-10T04:16:03,42.805,6.029,-0.012,0.014,0.0,103.0,103.0,102.0,13.4,1505.2,328.9,-0.8,1.8,2470.562,13.29,0.018,319.4
2021-10-10T04:19:03,42.805,6.029,-0.03,-0.009,-0.025,103.0,103.0,102.0,13.4,1505.2,327.2,-0.8,1.8,2470.523,13.29,0.031,253.3
2021-10-10T04:22:03,42.805,6.029,-0.023,0.03,-0.028,103.0,104.0,100.0,13.3,1505.2,331.1,-0.8,1.8,2470.516,13.29,0.037,322.5
2021-10-10T04:25:03,42.805,6.029,-0.023,0.0,-0.015,103.0,103.0,101.0,13.4,1505.2,328.9,-0.8,1.9,2470.513,13.29,0.023,270.0
2021-10-10T04:28:03,42.805,6.029,-0.021,0.021,0.011,104.0,103.0,102.0,13.4,1505.2,328.7,-0.8,1.9,2470.516,13.29,0.029,315.0
2021-10-10T04:31:03,42.805,6.029,-0.016,0.018,-0.026,105.0,103.0,102.0,13.4,1505.2,328.2,-0.7,1.8,2470.532,13.29,0.024,318.4
2021-10-10T04:34:03,42.805,6.029,-0.016,0.02,-0.002,103.0,105.0,101.0,13.4,1505.2,328.9,-0.7,1.9,2470.55,13.29,0.025,321.3
2021-10-10T04:37:03,42.805,6.029,-0.018,0.017,-0.032,103.0,103.0,101.0,13.4,1505.2,327.6,-0.8,1.8,2470.511,13.29,0.024,313.4
2021-10-10T04:40:03,42.805,6.029,-0.029,0.008,0.017,103.0,103.0,102.0,13.4,1505.2,330.2,-0.7,1.8,2470.518,13.29,0.03,285.4
2021-10-10T04:43:03,42.805,6.029,-0.017,0.02,0.028,103.0,103.0,102.0,13.4,1505.2,329.7,-0.7,1.8,2470.494,13.29,0.026,319.6
2021-10-10T04:46:03,42.805,6.029,0.001,0.007,0.015,103.0,105.0,103.0,13.3,1505.2,329.6,-0.7,1.8,2470.487,13.29,0.007,8.1
2021-10-10T04:49:03,42.805,6.029,0.002,0.003,-0.025,103.0,103.0,101.0,13.3,1505.2,327.2,-0.8,1.8,2470.509,13.29,0.003,33.7
2021-10-10T04:52:03,42.805,6.029,-0.015,-0.006,0.02,102.0,105.0,102.0,13.3,1505.2,326.6,-0.8,1.8,2470.523,13.29,0.016,248.2
2021-10-10T04:55:03,42.805,6.029,-0.004,0.006,-0.008,104.0,102.0,102.0,13.4,1505.2,328.9,-0.8,1.8,2470.495,13.29,0.007,326.3
2021-10-10T04:58:03,42.805,6.029,-0.011,0.015,-0.029,103.0,104.0,102.0,13.3,1505.2,327.4,-0.7,1.8,2470.54,13.29,0.018,323.7
2021-10-10T05:04:03,42.805,6.029,-0.022,-0.007,0.004,104.0,103.0,102.0,13.3,1505.2,330.0,-0.8,1.8,2470.56,13.28,0.023,252.4
2021-10-10T05:07:03,42.805,6.029,-0.035,0.017,0.001,103.0,104.0,101.0,13.4,1505.2,328.9,-0.7,1.8,2470.575,13.29,0.038,295.9
2021-10-10T05:10:03,42.805,6.029,-0.027,0.026,-0.024,104.0,104.0,101.0,13.4,1505.2,332.1,-0.7,1.8,2470.567,13.29,0.037,313.9
2021-10-10T05:13:03,42.805,6.029,-0.008,0.018,0.038,103.0,103.0,101.0,13.4,1505.2,325.6,-0.8,1.8,2470.541,13.29,0.019,336.0
2021-10-10T05:16:03,42.805,6.029,-0.008,0.008,-0.015,103.0,103.0,102.0,13.4,1505.2,328.3,-0.7,1.8,2470.564,13.29,0.011,315.0
2021-10-10T05:19:03,42.805,6.029,-0.002,0.006,-0.029,104.0,103.0,101.0,13.4,1505.2,327.3,-0.8,1.8,2470.482,13.29,0.006,341.6
2021-10-10T05:22:03,42.805,6.029,-0.008,0.023,-0.017,103.0,102.0,102.0,13.4,1505.2,327.7,-0.8,1.8,2470.56,13.29,0.024,340.8
2021-10-10T05:25:03,42.805,6.029,-0.022,0.003,-0.006,105.0,104.0,102.0,13.4,1505.2,326.8,-0.8,1.8,2470.518,13.29,0.022,277.8
2021-10-10T05:28:03,42.805,6.029,-0.027,0.007,0.011,103.0,103.0,102.0,13.4,1505.2,329.1,-0.7,1.8,2470.531,13.29,0.027,284.5
2021-10-10T05:31:03,42.805,6.029,-0.005,0.022,0.012,102.0,102.0,102.0,13.4,1505.2,329.6,-0.8,1.9,2470.5,13.29,0.022,347.2
2021-10-10T05:34:03,42.805,6.029,-0.024,-0.006,-0.043,102.0,103.0,101.0,13.4,1505.2,327.2,-0.7,1.8,2470.524,13.29,0.024,256.0
2021-10-10T05:37:03,42.805,6.029,-0.009,0.004,0.001,102.0,105.0,100.0,13.4,1505.2,324.9,-0.8,1.8,2470.555,13.29,0.009,294.0
2021-10-10T05:40:03,42.805,6.029,0.0,0.007,-0.005,103.0,101.0,102.0,13.4,1505.2,325.5,-0.7,1.8,2470.513,13.29,0.007,0.0
2021-10-10T05:43:03,42.805,6.029,-0.013,0.015,-0.002,103.0,103.0,100.0,13.4,1505.2,325.3,-0.8,1.8,2470.583,13.29,0.019,319.1
2021-10-10T05:46:03,42.805,6.029,-0.033,0.008,-0.004,102.0,103.0,102.0,13.4,1505.2,327.3,-0.8,1.8,2470.536,13.29,0.033,283.6
2021-10-10T05:49:03,42.805,6.029,-0.006,-0.002,-0.02,103.0,102.0,101.0,13.4,1505.2,326.9,-0.8,1.8,2470.565,13.29,0.006,251.6
2021-10-10T05:52:03,42.805,6.029,-0.019,0.002,-0.038,103.0,103.0,101.0,13.4,1505.2,331.9,-0.8,1.8,2470.537,13.29,0.019,276.0
2021-10-10T05:55:03,42.805,6.029,-0.022,-0.012,0.009,103.0,103.0,101.0,13.4,1505.2,325.8,-0.7,1.8,2470.573,13.29,0.025,241.4
2021-10-10T05:58:03,42.805,6.029,-0.016,0.011,0.012,101.0,103.0,102.0,13.4,1505.2,327.7,-0.8,1.8,2470.525,13.29,0.019,304.5
2021-10-10T06:04:03,42.805,6.029,-0.012,0.011,0.006,104.0,103.0,101.0,13.3,1505.2,331.7,-0.8,1.8,2470.618,13.28,0.016,312.5
2021-10-10T06:07:03,42.805,6.029,0.0,0.027,0.009,105.0,103.0,101.0,13.4,1505.2,326.2,-0.8,1.8,2470.594,13.29,0.026,0.0
2021-10-10T06:10:03,42.805,6.029,-0.019,0.0,-0.01,103.0,104.0,101.0,13.4,1505.2,326.7,-0.7,1.8,2470.582,13.29,0.019,270.0
2021-10-10T06:13:03,42.805,6.029,-0.002,0.007,-0.004,102.0,103.0,101.0,13.3,1505.2,330.1,-0.8,1.8,2470.608,13.29,0.007,344.1
2021-10-10T06:16:03,42.805,6.029,-0.02,-0.003,-0.016,103.0,103.0,102.0,13.4,1505.2,329.8,-0.8,1.8,2470.601,13.29,0.02,261.5
2021-10-10T06:19:03,42.805,6.029,-0.008,0.02,0.012,102.0,103.0,101.0,13.4,1505.2,326.8,-0.7,1.8,2470.606,13.29,0.021,338.2
2021-10-10T06:22:03,42.805,6.029,-0.009,0.0,-0.017,103.0,102.0,101.0,13.4,1505.2,327.0,-0.7,1.8,2470.611,13.29,0.009,270.0
2021-10-10T06:25:03,42.805,6.029,-0.015,0.0,-0.006,102.0,103.0,101.0,13.4,1505.2,328.7,-0.7,1.9,2470.593,13.29,0.015,270.0
2021-10-10T06:28:03,42.805,6.029,0.002,0.006,0.001,103.0,102.0,101.0,13.3,1505.2,326.3,-0.7,1.8,2470.638,13.29,0.006,18.4
2021-10-10T06:31:03,42.805,6.029,-0.02,0.0,-0.036,102.0,102.0,101.0,13.4,1505.2,331.3,-0.8,1.8,2470.587,13.29,0.02,270.0
2021-10-10T06:34:03,42.805,6.029,-0.005,0.0,0.006,102.0,104.0,102.0,13.4,1505.2,328.5,-0.8,1.8,2470.606,13.29,0.005,270.0
2021-10-10T06:37:03,42.805,6.029,-0.022,0.01,0.003,102.0,102.0,101.0,13.4,1505.2,331.3,-0.8,1.8,2470.6,13.29,0.024,294.4
2021-10-10T06:40:03,42.805,6.029,-0.005,0.007,0.018,102.0,103.0,101.0,13.4,1505.2,329.3,-0.8,1.8,2470.607,13.29,0.008,324.5
2021-10-10T06:43:03,42.805,6.029,-0.009,0.003,0.0,102.0,103.0,101.0,13.3,1505.2,330.7,-0.8,1.8,2470.585,13.29,0.009,288.4
2021-10-10T06:46:03,42.805,6.029,-0.022,-0.001,-0.009,101.0,102.0,102.0,13.3,1505.2,328.0,-0.7,1.8,2470.622,13.29,0.022,267.4
2021-10-10T06:55:03,42.805,6.029,-0.005,0.0,0.008,103.0,102.0,101.0,13.3,1505.2,331.1,-0.7,1.8,2470.674,13.29,0.005,270.0
2021-10-10T06:58:03,42.805,6.029,-0.019,-0.004,-0.012,104.0,102.0,100.0,13.4,1505.2,326.8,-0.7,1.8,2470.642,13.29,0.019,258.1
2021-10-10T07:04:03,42.805,6.029,-0.019,0.002,0.002,104.0,101.0,102.0,13.4,1505.2,329.5,-0.7,1.9,2470.688,13.28,0.019,276.0
2021-10-10T07:07:03,42.805,6.029,-0.013,0.004,0.018,102.0,103.0,100.0,13.4,1505.2,329.1,-0.8,1.8,2470.659,13.29,0.013,287.1
2021-10-10T07:10:03,42.805,6.029,-0.025,0.028,0.007,102.0,103.0,100.0,13.3,1505.2,326.8,-0.8,1.8,2470.692,13.29,0.037,318.2
2021-10-10T07:13:03,42.805,6.029,-0.026,0.012,-0.021,102.0,102.0,100.0,13.4,1505.2,329.1,-0.7,1.8,2470.714,13.29,0.028,294.8
2021-10-10T07:16:03,42.805,6.029,-0.015,0.012,-0.026,103.0,102.0,100.0,13.4,1505.2,331.1,-0.8,1.8,2470.682,13.29,0.019,308.7
2021-10-10T07:19:03,42.805,6.029,-0.03,0.017,0.016,102.0,104.0,100.0,13.4,1505.2,328.9,-0.8,1.8,2470.661,13.29,0.034,299.5
2021-10-10T07:22:03,42.805,6.029,-0.007,0.024,-0.03,102.0,103.0,101.0,13.4,1505.2,329.7,-0.7,1.8,2470.659,13.29,0.025,343.7
2021-10-10T07:25:03,42.805,6.029,-0.033,0.02,0.001,103.0,102.0,101.0,13.4,1505.2,325.1,-0.8,1.9,2470.665,13.29,0.038,301.2
2021-10-10T07:28:03,42.805,6.029,-0.022,0.029,0.008,102.0,103.0,102.0,13.4,1505.2,326.0,-0.8,1.8,2470.695,13.29,0.036,322.8
2021-10-10T07:31:03,42.805,6.029,-0.016,0.013,-0.021,103.0,102.0,101.0,13.3,1505.2,328.8,-0.8,1.8,2470.686,13.29,0.02,309.1
2021-10-10T07:34:03,42.805,6.029,0.0,0.006,0.026,104.0,102.0,101.0,13.4,1505.2,328.2,-0.8,1.8,2470.69,13.29,0.006,0.0
2021-10-10T07:37:03,42.805,6.029,-0.032,0.01,-0.013,105.0,104.0,102.0,13.3,1505.2,331.6,-0.8,1.8,2470.671,13.29,0.033,287.4
2021-10-10T07:40:03,42.805,6.029,-0.012,-0.005,-0.031,103.0,102.0,102.0,13.4,1505.2,329.9,-0.7,1.8,2470.67,13.29,0.013,247.4
2021-10-10T07:43:03,42.805,6.029,-0.013,-0.001,-0.01,103.0,102.0,102.0,13.4,1505.2,331.1,-0.8,1.8,2470.639,13.29,0.013,265.6
2021-10-10T07:46:03,42.805,6.029,-0.029,0.015,0.0,102.0,103.0,102.0,13.3,1505.2,326.1,-0.8,1.8,2470.656,13.29,0.032,297.4
2021-10-10T07:49:03,42.805,6.029,-0.035,0.009,0.023,102.0,103.0,101.0,13.4,1505.2,329.4,-0.8,1.9,2470.688,13.29,0.036,284.4
2021-10-10T07:52:03,42.805,6.029,-0.044,0.024,0.004,102.0,104.0,100.0,13.4,1505.2,327.2,-0.8,1.8,2470.711,13.29,0.05,298.6
2021-10-10T07:55:03,42.805,6.029,-0.025,0.007,-0.033,103.0,103.0,101.0,13.4,1505.2,329.4,-0.7,1.8,2470.72,13.29,0.025,285.6
2021-10-10T07:58:03,42.805,6.029,-0.009,0.013,0.01,102.0,103.0,102.0,13.4,1505.2,329.8,-0.7,1.8,2470.708,13.29,0.015,325.3
2021-10-10T08:04:03,42.805,6.029,-0.016,0.008,-0.02,104.0,103.0,101.0,13.4,1505.2,329.6,-0.8,1.8,2470.728,13.29,0.017,296.6
2021-10-10T08:07:03,42.805,6.029,-0.013,0.005,0.004,104.0,103.0,102.0,13.3,1505.2,325.2,-0.7,1.8,2470.723,13.29,0.013,291.0
2021-10-10T08:10:03,42.805,6.029,-0.015,0.024,0.0,103.0,103.0,102.0,13.3,1505.2,331.0,-0.7,1.8,2470.732,13.29,0.028,328.0
2021-10-10T08:13:03,42.805,6.029,-0.016,0.003,-0.013,104.0,103.0,101.0,13.3,1505.2,325.3,-0.7,1.8,2470.736,13.29,0.016,280.6
2021-10-10T08:16:03,42.805,6.029,-0.045,0.011,-0.001,102.0,104.0,102.0,13.4,1505.2,328.8,-0.7,1.8,2470.741,13.29,0.046,283.7
2021-10-10T08:19:03,42.805,6.029,-0.039,0.004,-0.025,103.0,104.0,101.0,13.3,1505.2,329.4,-0.8,1.8,2470.707,13.29,0.039,275.9
2021-10-10T08:22:03,42.805,6.029,-0.017,0.005,-0.015,103.0,104.0,101.0,13.3,1505.2,326.0,-0.7,1.8,2470.748,13.29,0.017,286.4
2021-10-10T08:25:03,42.805,6.029,-0.005,0.033,0.006,103.0,102.0,103.0,13.4,1505.2,326.6,-0.8,1.8,2470.702,13.29,0.033,351.4
2021-10-10T08:28:03,42.805,6.029,-0.039,0.014,-0.021,103.0,104.0,102.0,13.4,1505.2,331.5,-0.7,1.8,2470.741,13.29,0.041,289.7
2021-10-10T08:31:03,42.805,6.029,-0.018,0.0,-0.015,103.0,104.0,101.0,13.4,1505.2,328.6,-0.8,1.8,2470.727,13.29,0.018,270.0
2021-10-10T08:34:03,42.805,6.029,-0.036,0.002,0.005,103.0,103.0,101.0,13.4,1505.2,325.6,-0.8,1.8,2470.711,13.29,0.036,273.2
2021-10-10T08:37:03,42.805,6.029,-0.043,0.022,0.02,104.0,103.0,102.0,13.4,1505.2,327.0,-0.8,1.8,2470.71,13.29,0.048,297.1
2021-10-10T08:40:03,42.805,6.029,-0.037,0.017,-0.006,104.0,103.0,101.0,13.4,1505.2,327.1,-0.7,1.8,2470.761,13.29,0.04,294.7
2021-10-10T08:43:03,42.805,6.029,-0.032,0.028,0.002,103.0,104.0,101.0,13.4,1505.2,330.7,-0.8,1.8,2470.768,13.29,0.042,311.2
2021-10-10T08:46:03,42.805,6.029,0.006,-0.002,-0.042,103.0,104.0,102.0,13.4,1505.2,331.1,-0.7,1.9,2470.754,13.29,0.006,108.4
2021-10-10T08:49:03,42.805,6.029,-0.031,-0.015,-0.012,104.0,102.0,101.0,13.4,1505.2,326.7,-0.8,1.8,2470.709,13.29,0.034,244.2
2021-10-10T08:52:03,42.805,6.029,-0.023,-0.003,-0.02,102.0,103.0,101.0,13.4,1505.2,327.2,-0.7,1.8,2470.736,13.29,0.023,262.6
2021-10-10T08:55:03,42.805,6.029,-0.022,0.001,0.002,102.0,103.0,101.0,13.3,1505.2,331.5,-0.7,1.8,2470.714,13.29,0.022,272.6
2021-10-10T08:58:03,42.805,6.029,-0.007,0.01,0.006,103.0,103.0,101.0,13.3,1505.2,331.4,-0.7,1.8,2470.711,13.29,0.012,325.0
2021-10-10T09:04:03,42.805,6.029,-0.002,0.003,-0.02,103.0,103.0,101.0,13.4,1505.2,327.8,-0.8,1.8,2470.782,13.29,0.003,326.3
2021-10-10T09:07:03,42.805,6.029,0.0,-0.001,0.004,102.0,103.0,102.0,13.4,1505.2,330.9,-0.7,1.8,2470.79,13.29,0.001,180.0
2021-10-10T09:10:03,42.805,6.029,-0.028,0.019,0.014,102.0,104.0,102.0,13.4,1505.2,324.9,-0.8,1.8,2470.739,13.29,0.033,304.2
2021-10-10T09:13:03,42.805,6.029,-0.029,0.017,-0.021,103.0,103.0,102.0,13.4,1505.2,325.3,-0.7,1.8,2470.71,13.29,0.033,300.4
2021-10-10T09:16:03,42.805,6.029,-0.009,0.003,-0.006,104.0,104.0,102.0,13.3,1505.2,329.1,-0.7,1.8,2470.772,13.29,0.009,288.4
2021-10-10T09:19:03,42.805,6.029,-0.019,0.002,-0.004,103.0,103.0,102.0,13.4,1505.2,328.9,-0.7,1.8,2470.726,13.29,0.019,276.0
2021-10-10T09:22:03,42.805,6.029,-0.027,0.013,-0.014,103.0,103.0,101.0,13.4,1505.2,331.1,-0.8,1.8,2470.813,13.29,0.029,295.7
2021-10-10T09:25:03,42.805,6.029,-0.023,0.013,-0.019,103.0,104.0,101.0,13.4,1505.2,330.6,-0.8,1.8,2470.779,13.29,0.026,299.5
2021-10-10T09:28:03,42.805,6.029,-0.024,0.019,0.011,102.0,103.0,102.0,13.4,1505.2,327.1,-0.8,1.8,2470.759,13.29,0.03,308.4
2021-10-10T09:31:03,42.805,6.029,-0.039,0.0,-0.006,104.0,102.0,102.0,13.4,1505.2,328.2,-0.7,1.8,2470.736,13.29,0.039,270.0
2021-10-10T09:34:03,42.805,6.029,-0.021,0.01,0.019,103.0,103.0,102.0,13.3,1505.2,328.6,-0.8,1.8,2470.714,13.29,0.023,295.5
2021-10-10T09:37:03,42.805,6.029,0.001,0.003,-0.005,103.0,103.0,101.0,13.4,1505.2,326.8,-0.8,1.8,2470.708,13.29,0.003,18.4
2021-10-10T09:40:03,42.805,6.029,-0.001,0.02,0.004,105.0,103.0,102.0,13.4,1505.2,329.1,-0.7,1.8,2470.686,13.29,0.02,357.1
2021-10-10T09:43:03,42.805,6.029,-0.031,0.024,-0.02,104.0,103.0,101.0,13.4,1505.2,329.7,-0.7,1.8,2470.745,13.29,0.039,307.7
2021-10-10T09:46:03,42.805,6.029,-0.031,0.014,-0.025,104.0,102.0,101.0,13.4,1505.2,327.0,-0.8,1.8,2470.747,13.29,0.034,294.3
2021-10-10T09:49:03,42.805,6.029,-0.023,0.028,-0.013,103.0,103.0,102.0,13.4,1505.2,325.4,-0.7,1.8,2470.754,13.29,0.036,320.6
2021-10-10T09:52:03,42.805,6.029,-0.02,-0.003,-0.018,103.0,103.0,101.0,13.3,1505.2,327.1,-0.8,1.8,2470.736,13.29,0.02,261.5
2021-10-10T09:55:03,42.805,6.029,-0.004,0.004,0.004,104.0,104.0,101.0,13.4,1505.2,330.4,-0.7,1.8,2470.745,13.29,0.005,315.0
2021-10-10T09:58:03,42.805,6.029,0.005,0.008,-0.01,103.0,103.0,101.0,13.4,1505.2,329.9,-0.7,1.8,2470.73,13.29,0.009,32.0